Weather History for Modesto, CA

Change the Weather History Date:

Thursday, October 25, 2012

  Actual Average Record
Temperature  
Mean Temperature 63 °F -  
Max Temperature 69 °F 75 °F 91 °F (1959)
Min Temperature 56 °F 50 °F 35 °F (1935)
Degree Days  
Heating Degree Days 2 3  
Month to date heating degree days 45 35  
Since 1 July heating degree days 45 38  
Cooling Degree Days 0 1  
Month to date cooling degree days 93 80  
Year to date cooling degree days 1708 1692  
Growing Degree Days 12 (Base 50)    
Moisture  
Dew Point 46 °F    
Average Humidity 61    
Maximum Humidity 77    
Minimum Humidity 44    
Precipitation  
Precipitation 0.00 in 0.03 in 0.79 in (1982)
Month to date precipitation 0.12 0.48  
Year to date precipitation 6.97 9.51  
Since 1 July precipitation 0.12 0.76  
Snow  
Snow 0.00 in - 0.00 in (2002)
Month to date snowfall 0.0  
Since 1 July snowfall 0.0  
Since 1 September snowfall 0.0  
Snow Depth -    
Sea Level Pressure  
Sea Level Pressure 30.21 in    
Wind  
Wind Speed 8 mph (NW)    
Max Wind Speed 20 mph    
Max Gust Speed 25 mph    
Visibility 10 miles    
Events      
T = Trace of Precipitation, MM = Missing Value Source: NWS Daily Summary

Daily Weather History Graph

Daily Weather History Graph

Search for Another Location

Airport:

Trip Planner

Search our weather history database for the weather conditions in past years. The results will help you decide how hot, cold, wet, or windy it might be!

Date:

Astronomy

Oct. 25, 2012 Rise Set
Actual Time 7:22 AM PDT 6:12 PM PDT
Civil Twilight 6:55 AM PDT 6:39 PM PDT
Nautical Twilight 6:24 AM PDT 7:10 PM PDT
Astronomical Twilight 5:54 AM PDT 7:40 PM PDT
Moon 3:58 PM PDT (10/25) 3:28 AM PDT (10/25)
Length of Visible Light 11h 43m
Length of Day
10h 50m
Waxing Gibbous, 85% of the Moon is Illuminated
Oct 25
Waxing Gibbous
Oct 29
Full
Nov 6
Last Quarter
Nov 13
New
Nov 20
First Quarter

Hourly Weather History & Observations

Time (PDT) Temp. Dew Point Humidity Pressure Visibility Wind Dir Wind Speed Gust Speed Precip Events Conditions
12:53 AM 57.0 °F 46.0 °F 67% 30.20 in 10.0 mi North 4.6 mph - N/A   Overcast
1:53 AM 57.9 °F 46.0 °F 65% 30.22 in 10.0 mi North 3.5 mph - N/A   Overcast
2:53 AM 57.9 °F 46.0 °F 65% 30.21 in 10.0 mi North 3.5 mph - N/A   Overcast
3:53 AM 57.9 °F 46.0 °F 65% 30.20 in 10.0 mi North 3.5 mph - N/A   Overcast
4:53 AM 57.0 °F 46.9 °F 69% 30.20 in 10.0 mi WNW 5.8 mph - N/A   Overcast
5:53 AM 57.0 °F 46.9 °F 69% 30.21 in 10.0 mi West 4.6 mph - N/A   Overcast
6:53 AM 55.9 °F 48.0 °F 75% 30.20 in 10.0 mi West 6.9 mph - N/A   Overcast
7:53 AM 55.9 °F 48.9 °F 77% 30.22 in 9.0 mi WNW 6.9 mph - N/A   Overcast
8:53 AM 57.9 °F 48.9 °F 72% 30.24 in 10.0 mi WNW 10.4 mph - N/A   Overcast
9:53 AM 61.0 °F 48.0 °F 62% 30.25 in 10.0 mi NW 12.7 mph - N/A   Overcast
10:53 AM 64.0 °F 46.9 °F 54% 30.25 in 10.0 mi NW 12.7 mph 21.9 mph N/A   Mostly Cloudy
11:53 AM 64.9 °F 46.0 °F 50% 30.24 in 10.0 mi NNW 11.5 mph - N/A   Clear
12:53 PM 66.0 °F 46.0 °F 48% 30.22 in 10.0 mi NNW 11.5 mph - N/A   Clear
1:53 PM 68.0 °F 46.9 °F 47% 30.19 in 10.0 mi WNW 10.4 mph - N/A   Clear
2:53 PM 69.1 °F 46.9 °F 45% 30.18 in 10.0 mi NNW 15.0 mph - N/A   Clear
3:53 PM 68.0 °F 48.0 °F 49% 30.18 in 10.0 mi NW 15.0 mph 21.9 mph N/A   Clear
4:53 PM 66.9 °F 46.0 °F 47% 30.17 in 10.0 mi NW 17.3 mph 24.2 mph N/A   Clear
5:53 PM 64.9 °F 46.0 °F 50% 30.17 in 10.0 mi NW 16.1 mph 21.9 mph N/A   Clear
6:53 PM 62.1 °F 46.0 °F 56% 30.18 in 10.0 mi NW 12.7 mph - N/A   Clear
7:53 PM 60.1 °F 46.0 °F 60% 30.19 in 10.0 mi WNW 10.4 mph - N/A   Clear
8:53 PM 57.9 °F 45.0 °F 62% 30.20 in 10.0 mi WNW 11.5 mph - N/A   Clear
9:53 PM 55.9 °F 44.1 °F 64% 30.20 in 10.0 mi WNW 10.4 mph - N/A   Clear
10:53 PM 55.9 °F 42.1 °F 60% 30.20 in 10.0 mi WNW 10.4 mph - N/A   Clear